Miscellaneous Local Product
Issued by NWS North Platte, NE

Home | Current Version | Previous Version | Text Only | Print | Product List | Glossary On
Versions: 1 2 3 4 5 6 7 8 9 10 11 12 13 14 15 16 17 18 19 20 21 22 23 24 25 26 27 28 29 30 31 32 33 34 35 36 37 38 39 40 41 42 43 44 45 46 47 48 49 50
000
AXUS43 KLBF 102110
MISLBF


WESTERN AND NORTH CENTRAL NEBRASKA HOURLY WEATHER ROUNDUP
NATIONAL WEATHER SERVICE NORTH PLATTE NE
300 PM CST SAT DEC 10 2016

NOTE: "FAIR" INDICATES FEW OR NO CLOUDS BELOW 12,000 FEET WITH NO
SIGNIFICANT WEATHER AND/OR OBSTRUCTIONS TO VISIBILITY.

NOTE: STATIONS NOT REPORTING VARIABLES SUCH AS SKY/WEATHER OR
PRESSURE ARE PROVIDED BY RAWS AND APRS NETWORKS AND ARE NOT UNDER
NATIONAL WEATHER SERVICE QUALITY CONTROL.

...OBSERVATIONS IN AND NEAR THE EASTERN PANHANDLE OF NEBRASKA...

CITY           SKY/WX    TMP DP  RH WIND       PRES   REMARKS
PINE RIDGE     CLOUDY    18  13  80 NE8       29.74F WCI   8
CHADRON        CLOUDY    16   9  74 NE5       29.74F WCI   9
ALLIANCE       CLOUDY    30  21  69 S12       29.70F WCI  20
SIDNEY         CLOUDY    34  24  67 S13       29.73F WCI  25
CRESCENT LAKE    N/A     28  22  78 S9          N/A  WCI  19
$$

...OBSERVATIONS IN NORTHERN NEBRASKA AND FAR SOUTHERN SOUTH DAKOTA...

CITY           SKY/WX    TMP DP  RH WIND       PRES   REMARKS
WINNER         CLOUDY    17  13  84 E12       29.92F WCI   4
VALENTINE      CLOUDY    18  13  80 NE7       29.83F WCI   9
THEDFORD       CLOUDY    29  21  73 S12       29.81F WCI  19
AINSWORTH      CLOUDY    27  22  82 SE10      29.83F WCI  17
O`NEILL        CLOUDY    26  21  83 SE9       29.93F WCI  16
ORD            CLOUDY    30  17  58 S12G23    29.91F WCI  20
BROKEN BOW     CLOUDY    30  20  66 S14G24    29.87F WCI  19
VALENTINE NWR    N/A     25  20  81 S13         N/A  WCI  14
BUTTE            N/A     21  18  87 SE14G24     N/A  WCI   8
HALSEY           N/A     27  18  69 S6G15       N/A  WCI  21
CHAMBERS         N/A     30  18  61 S3G12       N/A
EWING            N/A     27  22  79 SE8G16      N/A  WCI  19
$$

...OBSERVATIONS IN SOUTHWEST NEBRASKA AND FAR NORTHEAST COLORADO...

CITY           SKY/WX    TMP DP  RH WIND       PRES   REMARKS
HOLYOKE        FAIR      34  27  75 SE5       29.79F WCI  30
IMPERIAL       CLOUDY    29  22  75 S8        29.83F WCI  21
OGALLALA       CLOUDY    28  22  77 S9        29.81F WCI  19
NORTH PLATTE   CLOUDY    30  21  69 SW10      29.86F WCI  21
MCCOOK         CLOUDY    33  24  69 S10       29.86F WCI  25
LEXINGTON      CLOUDY    31  21  65 S14       29.89F WCI  21
STAPLETON        N/A     29  21  72 CALM        N/A
GOTHENBURG       N/A     27  19  71 SE10        N/A  WCI  17
CALLAWAY         N/A     28  22  78 S15         N/A  WCI  16
$$

...OBSERVATIONS IN CENTRAL LINCOLN COUNTY AREA...

CITY           SKY/WX    TMP DP  RH WIND       PRES   REMARKS
N.P. AIRPORT   CLOUDY    30  21  69 SW10      29.86F WCI  21
N.P. DOWNTOWN    N/A     27  22  79 S3G12       N/A
N.P. SOUTHEAST   N/A     26  20  79 S8          N/A  WCI  18
N.P. HILLCREST   N/A     27  22  80 S10G20      N/A  WCI  17
$$

...SOME OBSERVATIONS FROM AROUND THE REGION...

CITY           SKY/WX    TMP DP  RH WIND       PRES   REMARKS
LARAMIE        CLOUDY    41  27  57 W20         N/A
CHEYENNE       CLOUDY    47  26  44 W17       29.74S
DENVER         CLOUDY    47  28  47 CALM      29.76S
AKRON          CLOUDY    36  27  69 CALM      29.76R
SCOTTSBLUFF    CLOUDY    28  19  69 E5        29.71F WCI  23
RAPID CITY     CLOUDY     8   2  76 E6        29.80F WCI  -2
BISMARCK       LGT SNOW  -4  -8  83 E9        30.13F FOG     WCI -20
PIERRE         CLOUDY     7   2  80 E16       29.99F WCI -11
SIOUX FALLS    FLURRIES  15  12  88 E20G25    30.09F WCI  -2
OMAHA          CLOUDY    30  15  53 SE14      30.13F WCI  19
GRAND ISLAND   CLOUDY    31  20  63 S18G24    29.96F WCI  19
KANSAS CITY    CLOUDY    35  19  52 SE13      30.15F WCI  26
WICHITA        PTSUNNY   45  23  42 S22G29    30.05F
OKLAHOMA CITY  PTSUNNY   46  26  45 S23G31    30.10F
DALLAS         CLOUDY    49  30  48 S17       30.25F
AMARILLO       SUNNY     70  29  21 SW30      29.92F
DODGE CITY     CLOUDY    43  27  53 S23       29.90F
HAYS           CLOUDY    39  24  55 S15       29.94F WCI  31
GOODLAND       CLOUDY    36  25  64 SE14      29.77F WCI  27
$$




USA.gov is the U.S. government's official web portal to all federal, state and local government web resources and services.